Regional Weather Roundup
Issued by NWS

Home | Current Version | Previous Version | Graphics & Text | Print | Product List | Glossary On
Versions: 1 2 3 4 5 6 7 8 9 10 11 12 13 14 15 16 17 18 19 20 21 22 23 24 25 26 27 28 29 30 31 32 33 34 35 36 37 38 39 40 41 42 43 44 45 46 47 48 49 50
000
ASUS43 KLMK 201302
RWRKY
KENTUCKY REGIONAL WEATHER ROUNDUP
NATIONAL WEATHER SERVICE LOUISVILLE KY
900 AM EDT MON OCT 20 2014

NOTE "FAIR" INDICATES FEW OR NO CLOUDS BELOW 12,000 FEET
WITH NO SIGNIFICANT WEATHER AND/OR OBSTRUCTIONS TO VISIBILITY.

KYZ001>023-026-027-061>063-070>075-201400-
WESTERN AND SOUTH CENTRAL KENTUCKY

CITY           SKY/WX    TMP DP  RH WIND       PRES   REMARKS
PADUCAH        CLOUDY    52  47  83 SW7       30.04R
HENDERSON      MOCLDY    52  45  76 S7        30.03R
OWENSBORO      LGT RAIN  50  48  92 S7        30.04S
HOPKINSVILLE   PTSUNNY   48  48 100 SW2       30.08R FOG
BOWLING GREEN  CLOUDY    50  46  86 CALM      30.08S
GLASGOW        NOT AVBL
$$

KYZ024-025-028>034-038-045-046-053-201400-
NORTH CENTRAL KENTUCKY

CITY           SKY/WX    TMP DP  RH WIND       PRES   REMARKS
LOUISVILLE/SDF LGT RAIN  50  47  89 MISG      30.05R FOG
LOUISVILLE/LOU LGT RAIN  49  47  93 S5        30.05R FOG
FORT KNOX      LGT RAIN  47  45  92 S1        30.04R
$$

KYZ035>037-039>044-047>052-055>060-089>105-201400-
NORTHEAST KENTUCKY

CITY           SKY/WX    TMP DP  RH WIND       PRES   REMARKS
LEXINGTON      CLOUDY    50  43  77 S7        30.05S
COVINGTON      CLOUDY    49  43  80 S8        30.01S
FRANKFORT      LGT RAIN  47  44  90 SW5       30.04R
$$

KYZ054-064>069-076>088-106>120-201400-
SOUTHEAST KENTUCKY

CITY           SKY/WX    TMP DP  RH WIND       PRES   REMARKS
JACKSON        MOSUNNY   45  41  86 VRB3      30.08R
LONDON         SUNNY     44  41  89 CALM      30.10R
SOMERSET       FOG       41  41 100 CALM      30.11R VSB 3/4
MIDDLESBORO    PTSUNNY   41  40  99 CALM      30.13R
MONTICELLO     FOG       45  44  96 CALM      30.11R VSB 3/4
$$




USA.gov is the U.S. government's official web portal to all federal, state and local government web resources and services.